Weather History for Caldwell, ID

Change the Weather History Date:

Wednesday, February 6, 2013

  Actual Average (KBOI) Record (KBOI)
Temperature  
Mean Temperature 35 °F 34 °F  
Max Temperature 42 °F 42 °F 65 °F (1886)
Min Temperature 28 °F 27 °F -11 °F (1989)
Degree Days  
Heating Degree Days 30 31  
Month to date heating degree days 187  
Since 1 July heating degree days 3548  
Cooling Degree Days 0 0  
Month to date cooling degree days 0  
Year to date cooling degree days 0  
Moisture  
Dew Point 27 °F    
Average Humidity 80    
Maximum Humidity 86    
Minimum Humidity 57    
Precipitation  
Precipitation 0.00 in 0.04 in 0.74 in (1897)
Month to date precipitation 0.21  
Year to date precipitation 1.45  
Snow  
Snow 0.00 in 0.10 in 3.00 in (2008)
Month to date snowfall 0.8  
Since 1 July snowfall 15.6  
Snow Depth -    
Sea Level Pressure  
Sea Level Pressure 30.12 in    
Wind  
Wind Speed 3 mph (NNW)    
Max Wind Speed 10 mph    
Max Gust Speed -    
Visibility 6 miles    
Events      
T = Trace of Precipitation, MM = Missing Value Source: NWS Daily Summary

Daily Weather History Graph

Daily Weather History Graph

Search for Another Location

Airport:

Trip Planner

Search our weather history database for the weather conditions in past years. The results will help you decide how hot, cold, wet, or windy it might be!

Date:

Astronomy

Feb. 06, 2013 Rise Set
Actual Time 7:56 AM MST 6:05 PM MST
Civil Twilight 7:26 AM MST 6:35 PM MST
Nautical Twilight 6:52 AM MST 7:09 PM MST
Astronomical Twilight 6:19 AM MST 7:42 PM MST
Moon 4:48 AM MST (2/6) 2:24 PM MST (2/6)
Length of Visible Light 11h 08m
Length of Day
10h 08m
Waning Crescent, 16% of the Moon is Illuminated
Feb 6
Waning Crescent
Feb 10
New
Feb 17
First Quarter
Feb 25
Full
Mar 4
Last Quarter

Hourly Weather History & Observations

Time (MST) Temp. Windchill Dew Point Humidity Pressure Visibility Wind Dir Wind Speed Gust Speed Precip Events Conditions
12:15 AM 30.2 °F 24.3 °F 26.6 °F 86% 30.03 in 7.0 mi West 5.8 mph - N/A   Overcast
12:35 AM 30.2 °F 21.9 °F 26.6 °F 86% 30.05 in 6.0 mi NW 9.2 mph - N/A   Overcast
12:55 AM 30.2 °F 24.3 °F 26.6 °F 86% 30.06 in 5.0 mi NW 5.8 mph - N/A   Overcast
1:15 AM 30.2 °F 26.7 °F 26.6 °F 86% 30.06 in 4.0 mi NNW 3.5 mph - N/A   Overcast
1:35 AM 30.2 °F 23.4 °F 26.6 °F 86% 30.07 in 3.0 mi NW 6.9 mph - N/A   Overcast
1:55 AM 30.2 °F 25.4 °F 26.6 °F 86% 30.07 in 2.5 mi NNW 4.6 mph - N/A   Overcast
2:15 AM 30.2 °F 26.7 °F 26.6 °F 86% 30.07 in 2.0 mi NW 3.5 mph - N/A   Overcast
2:35 AM 30.2 °F - 26.6 °F 86% 30.08 in 1.8 mi Calm Calm - N/A   Overcast
2:55 AM 30.2 °F - 26.6 °F 86% 30.08 in 2.0 mi Calm Calm - N/A   Overcast
3:15 AM 30.2 °F - 26.6 °F 86% 30.08 in 1.5 mi Calm Calm - N/A   Overcast
3:35 AM 30.2 °F - 26.6 °F 86% 30.08 in 1.0 mi Calm Calm - N/A   Overcast
3:55 AM 30.2 °F - 26.6 °F 86% 30.08 in 1.0 mi Calm Calm - N/A   Overcast
4:15 AM 30.2 °F - 26.6 °F 86% 30.08 in 0.8 mi Calm Calm - N/A   Overcast
4:35 AM 30.2 °F 25.4 °F 26.6 °F 86% 30.09 in 1.0 mi WNW 4.6 mph - N/A   Overcast
4:55 AM 30.2 °F - 26.6 °F 86% 30.10 in 1.0 mi Calm Calm - N/A   Overcast
5:15 AM 30.2 °F - 26.6 °F 86% 30.10 in 1.5 mi Calm Calm - N/A   Overcast
5:35 AM 30.2 °F - 26.6 °F 86% 30.11 in 3.0 mi Calm Calm - N/A   Overcast
5:55 AM 30.2 °F 25.4 °F 26.6 °F 86% 30.11 in 3.0 mi North 4.6 mph - N/A   Overcast
6:15 AM 30.2 °F 26.7 °F 26.6 °F 86% 30.11 in 3.0 mi NW 3.5 mph - N/A   Overcast
6:35 AM 30.2 °F - 26.6 °F 86% 30.12 in 3.0 mi Calm Calm - N/A   Overcast
6:55 AM 30.2 °F - 26.6 °F 86% 30.12 in 5.0 mi Calm Calm - N/A   Overcast
7:15 AM 30.2 °F - 26.6 °F 86% 30.12 in 5.0 mi Calm Calm - N/A   Overcast
7:35 AM 30.2 °F 26.7 °F 26.6 °F 86% 30.13 in 5.0 mi NNW 3.5 mph - N/A   Overcast
8:35 AM 30.2 °F - 26.6 °F 86% 30.15 in 6.0 mi Calm Calm - N/A   Overcast
8:55 AM 30.2 °F - 26.6 °F 86% 30.16 in 6.0 mi Calm Calm - N/A   Overcast
9:15 AM 30.2 °F 26.7 °F 26.6 °F 86% 30.17 in 7.0 mi NNW 3.5 mph - N/A   Overcast
9:35 AM 30.2 °F 26.7 °F 26.6 °F 86% 30.18 in 8.0 mi NNE 3.5 mph - N/A   Overcast
9:55 AM 30.2 °F - 24.8 °F 80% 30.18 in 10.0 mi Calm Calm - N/A   Overcast
10:15 AM 30.2 °F - 26.6 °F 86% 30.17 in 10.0 mi Calm Calm - N/A   Overcast
10:35 AM 32.0 °F - 26.6 °F 80% 30.18 in 10.0 mi Calm Calm - N/A   Overcast
10:55 AM 32.0 °F - 26.6 °F 80% 30.18 in 9.0 mi Calm Calm - N/A   Overcast
11:15 AM 33.8 °F - 26.6 °F 75% 30.19 in 9.0 mi Calm Calm - N/A   Overcast
11:35 AM 33.8 °F 30.8 °F 26.6 °F 75% 30.19 in 10.0 mi NE 3.5 mph - N/A   Overcast
11:55 AM 33.8 °F - 26.6 °F 75% 30.19 in 10.0 mi Calm Calm - N/A   Overcast
12:15 PM 33.8 °F - 26.6 °F 75% 30.19 in 10.0 mi Calm Calm - N/A   Overcast
12:35 PM 35.6 °F 32.8 °F 28.4 °F 75% 30.18 in 10.0 mi ENE 3.5 mph - N/A   Mostly Cloudy
12:55 PM 35.6 °F 32.8 °F 26.6 °F 70% 30.18 in 10.0 mi ESE 3.5 mph - N/A   Scattered Clouds
1:15 PM 35.6 °F - 28.4 °F 75% 30.17 in 10.0 mi Calm Calm - N/A   Mostly Cloudy
1:35 PM 37.4 °F - 28.4 °F 70% 30.17 in 10.0 mi Calm Calm - N/A   Scattered Clouds
1:55 PM 37.4 °F - 28.4 °F 70% 30.16 in 10.0 mi Calm Calm - N/A   Partly Cloudy
2:15 PM 39.2 °F 37.0 °F 28.4 °F 65% 30.16 in 10.0 mi North 3.5 mph - N/A   Partly Cloudy
2:35 PM 39.2 °F 37.0 °F 28.4 °F 65% 30.15 in 10.0 mi NNW 3.5 mph - N/A   Clear
2:55 PM 39.2 °F - 28.4 °F 65% 30.15 in 10.0 mi Calm Calm - N/A   Clear
3:15 PM 41.0 °F - 30.2 °F 65% 30.14 in 10.0 mi Calm Calm - N/A   Clear
3:35 PM 41.0 °F - 30.2 °F 65% 30.14 in 10.0 mi Calm Calm - N/A   Clear
3:55 PM 42.8 °F - 28.4 °F 57% 30.14 in 10.0 mi Calm Calm - N/A   Clear
4:15 PM 41.0 °F 37.1 °F 30.2 °F 65% 30.15 in 10.0 mi NW 5.8 mph - N/A   Clear
4:35 PM 39.2 °F 32.5 °F 30.2 °F 70% 30.15 in 10.0 mi WNW 10.4 mph - N/A   Clear
4:55 PM 37.4 °F 30.8 °F 30.2 °F 75% 30.14 in 10.0 mi NW 9.2 mph - N/A   Clear
5:15 PM 37.4 °F 33.8 °F 30.2 °F 75% 30.14 in 10.0 mi NNW 4.6 mph - N/A   Clear
5:35 PM 37.4 °F 33.8 °F 28.4 °F 70% 30.13 in 10.0 mi NNW 4.6 mph - N/A   Clear
5:55 PM 35.6 °F 31.7 °F 28.4 °F 75% 30.14 in 10.0 mi NNW 4.6 mph - N/A   Clear
6:15 PM 33.8 °F 29.6 °F 28.4 °F 81% 30.13 in 10.0 mi NW 4.6 mph - N/A   Clear
6:35 PM 33.8 °F 28.6 °F 26.6 °F 75% 30.13 in 10.0 mi NW 5.8 mph - N/A   Clear
6:55 PM 32.0 °F 27.5 °F 26.6 °F 80% 30.13 in 8.0 mi North 4.6 mph - N/A   Clear
7:15 PM 30.2 °F 26.7 °F 26.6 °F 86% 30.12 in 7.0 mi North 3.5 mph - N/A   Clear
7:35 PM 30.2 °F 26.7 °F 26.6 °F 86% 30.12 in 7.0 mi NW 3.5 mph - N/A   Clear
7:55 PM 30.2 °F - 26.6 °F 86% 30.11 in 6.0 mi Calm Calm - N/A   Clear
8:15 PM 30.2 °F - 24.8 °F 80% 30.11 in 8.0 mi Calm Calm - N/A   Clear
8:35 PM 30.2 °F - 26.6 °F 86% 30.11 in 7.0 mi Calm Calm - N/A   Clear
8:55 PM 30.2 °F - 24.8 °F 80% 30.11 in 5.0 mi Calm Calm - N/A   Clear
9:15 PM 30.2 °F 26.7 °F 24.8 °F 80% 30.10 in 5.0 mi South 3.5 mph - N/A   Clear
9:35 PM 28.4 °F 24.6 °F 24.8 °F 86% 30.10 in 5.0 mi WSW 3.5 mph - N/A   Clear
9:55 PM 28.4 °F 24.6 °F 24.8 °F 86% 30.10 in 5.0 mi West 3.5 mph - N/A   Clear
10:15 PM 28.4 °F - 24.8 °F 86% 30.09 in 5.0 mi Calm Calm - N/A   Clear
10:35 PM 28.4 °F - 24.8 °F 86% 30.09 in 5.0 mi Calm Calm - N/A   Partly Cloudy
10:55 PM 28.4 °F - 24.8 °F 86% 30.08 in 4.0 mi Calm Calm - N/A   Scattered Clouds
11:35 PM 28.4 °F - 24.8 °F 86% 30.08 in 1.5 mi Calm Calm - N/A   Overcast
11:55 PM 28.4 °F 23.3 °F 24.8 °F 86% 30.08 in 0.5 mi West 4.6 mph - N/A   Overcast